INS-2TD

导读

INS-2TD是印度(IN)于2022年2月14日发射的技术演示卫星,由印度空间研究组织主导研发。作为印度航天领域的试验性任务,它主要用于验证包括热红外成像、定位系统在内的多项新型航天技术,为后续印度遥感卫星的技术升级积累工程经验,助力印度提升自主卫星技术研发能力,推动本国航天遥感领域的发展。

基本信息
目录编号:
51658
目录名称:
INS-2TD
国际标识:
2022-013C
轨道中心:
EARTH
卫星名称:
INS-2TD
卫星全名:
--
卫星状态:
已陨落 最后检测时间 2024-11-13
发射日期:
2022-02-14 UTC
国别 :
印度 (IN)
星等 :
--
轨道信息
数据来源 国际轨道数据
星历时间: 2024-11-07T09:07:01+0800
轨道信息已过期614天
半长轴: 6530.816km
偏心率: 0.0009153
轨道倾角: 97.468°
近地点辐角 254.010°
升交点赤经 343.714°
平近点角 106.020°
近地点: 146.703km
远地点: 158.659km
周期: 87.541分钟
每日圈数: 16.44946
详细信息
使用方式:
暂无